GW6316 Weather Reports


time (UTC)temp
C
wind
direction
speed
KPH
gust
KPH
rain 1hr
cm
rain 24hr
cm
rain mn
cm
humidity
%
barometer
mb
20260507162530 12 69 3.2 9.7 0.46 2.87 2.87 89 1010.2
20260507162033 12 64 1.6 14.5 0.46 2.82 2.82 89 1010.1
20260507161550 12 96 4.8 14.5 0.51 2.79 2.79 89 1010.2
20260507161029 12 24 6.4 14.5 0.53 2.74 2.74 89 1010.3
20260507160529 12 69 3.2 22.5 0.58 2.67 2.67 88 1010.4
20260507160042 12 352 6.4 22.5 0.64 2.64 2.64 88 1010.4
20260507155530 12 30 9.7 27.4 0.64 2.59 2.59 88 1010.2
20260507155031 12 360 4.8 27.4 0.64 2.57 2.57 88 1010.2
20260507154546 12 15 8.0 27.4 0.64 2.54 2.54 89 1010.0
20260507154029 12 81 3.2 17.7 0.61 2.51 2.51 89 1009.8
20260507153531 12 43 6.4 17.7 0.58 2.49 2.49 89 1009.3
20260507153052 12 86 4.8 19.3 0.56 2.46 2.46 88 1009.9
20260507152529 12 31 4.8 19.3 0.51 2.41 2.41 88 1010.2
20260507152031 12 9 8.0 20.9 0.48 2.36 2.36 88 1010.3
20260507151542 12 54 9.7 20.9 0.41 2.29 2.29 88 1010.4
20260507151030 12 43 8.0 16.1 0.36 2.21 2.21 87 1010.7
20260507150531 12 321 6.4 14.5 0.25 2.11 2.11 87 1010.8
20260507150049 12 93 4.8 20.9 0.15 2.01 2.01 87 1010.9
20260507145532 13 23 4.8 20.9 0.10 1.96 1.96 86 1010.8
20260507145030 13 328 9.7 20.9 0.05 1.91 1.91 86 1010.5
20260507144540 13 48 9.7 19.3 0.05 1.91 1.91 85 1010.5
20260507144031 13 9 6.4 25.7 0.05 1.91 1.91 86 1010.2
20260507143531 13 25 9.7 25.7 0.05 1.91 1.91 85 1010.3
20260507143053 13 352 11.3 25.7 0.05 1.91 1.91 85 1010.2
20260507142534 13 53 6.4 20.9 0.05 1.91 1.91 85 1010.2
20260507142031 13 80 9.7 19.3 0.03 1.88 1.88 84 1010.1
20260507141545 13 50 8.0 24.1 0.03 1.88 1.88 85 1010.0
20260507141029 14 20 8.0 25.7 0.00 1.85 1.85 85 1010.0
20260507140533 14 11 11.3 25.7 0.00 1.85 1.85 86 1009.9
20260507140046 15 30 6.4 24.1 0.00 1.85 1.85 88 1009.8
20260507135532 15 33 6.4 25.7 0.03 1.85 1.85 87 1009.6
20260507135035 15 38 8.0 25.7 0.05 1.85 1.85 88 1009.8
20260507134542 15 352 6.4 22.5 0.10 1.85 1.85 88 1009.8
20260507134032 15 28 8.0 22.5 0.10 1.85 1.85 87 1009.7
20260507133531 15 94 6.4 29.0 0.10 1.85 1.85 89 1009.7
20260507133047 15 156 9.7 29.0 0.13 1.85 1.85 88 1009.6
20260507132532 15 121 8.0 24.1 0.13 1.85 1.85 89 1009.5
20260507132032 15 18 9.7 24.1 0.13 1.85 1.85 89 1009.6
20260507131547 15 19 8.0 24.1 0.15 1.85 1.85 89 1009.6
20260507131031 15 15 9.7 22.5 0.18 1.85 1.85 89 1009.5
20260507130533 15 110 6.4 19.3 0.20 1.85 1.85 90 1009.6
20260507130059 15 70 4.8 19.3 0.25 1.85 1.85 90 1009.5
20260507125535 15 59 8.0 22.5 0.23 1.83 1.83 89 1009.9
20260507125033 15 66 9.7 22.5 0.20 1.78 1.78 89 1009.8
20260507124607 15 22 8.0 22.5 0.18 1.75 1.75 89 1010.0
20260507124033 15 13 4.8 22.5 0.20 1.75 1.75 90 1009.9
20260507123532 15 65 8.0 19.3 0.20 1.75 1.75 89 1009.7
20260507123057 15 49 6.4 22.5 0.18 1.73 1.73 89 1009.7
20260507122532 15 28 8.0 22.5 0.20 1.73 1.73 89 1009.8
20260507122033 15 13 8.0 27.4 0.20 1.70 1.70 89 1009.7
20260507121555 15 19 9.7 27.4 0.23 1.70 1.70 89 1009.7
20260507121033 15 82 8.0 24.1 0.23 1.68 1.68 89 1009.7
20260507120540 15 231 6.4 19.3 0.20 1.65 1.65 88 1009.9
20260507120042 15 50 8.0 19.3 0.18 1.60 1.60 88 1009.7
20260507115531 16 23 3.2 19.3 0.20 1.60 1.60 88 1010.2
20260507115034 16 322 3.2 22.5 0.20 1.57 1.57 88 1010.0
20260507114547 16 56 6.4 24.1 0.25 1.57 1.57 88 1010.0
20260507114032 16 29 9.7 24.1 0.25 1.55 1.55 87 1009.7
20260507113537 17 46 8.0 22.5 0.28 1.55 1.55 86 1009.6
20260507113045 18 254 3.2 14.5 0.30 1.52 1.52 86 1009.7
20260507112535 19 55 0.0 4.8 0.33 1.52 1.52 87 1009.1
20260507112033 19 0 1.6 8.0 0.38 1.47 1.47 88 1009.0
20260507111544 19 223 3.2 8.0 0.51 1.47 1.47 88 1009.2
20260507111031 19 211 3.2 8.0 0.64 1.45 1.45 88 1009.1
20260507110533 19 241 1.6 6.4 0.76 1.42 1.42 89 1009.0
20260507110046 19 0 1.6 6.4 0.99 1.42 1.42 89 1008.9
20260507105533 19 245 3.2 11.3 1.17 1.40 1.40 89 1009.0
20260507105031 18 225 1.6 11.3 1.24 1.37 1.37 89 1008.9
20260507104541 18 242 3.2 16.1 1.19 1.32 1.32 89 1008.8
20260507104031 19 235 4.8 16.1 1.17 1.30 1.30 89 1008.8
20260507103533 19 248 4.8 14.5 1.14 1.27 1.27 89 1008.8
20260507103040 18 261 4.8 14.5 1.09 1.22 1.22 89 1008.7
20260507102534 18 235 6.4 14.5 1.04 1.17 1.17 89 1008.7
20260507102033 18 230 6.4 14.5 0.99 1.12 1.12 88 1008.7
20260507101545 19 330 1.6 8.0 0.81 0.94 0.94 88 1008.6
20260507101032 19 331 4.8 8.0 0.66 0.79 0.79 87 1008.5
20260507100530 19 283 1.6 6.4 0.56 0.66 0.66 87 1008.6
20260507100056 19 258 1.6 8.0 0.38 0.41 0.41 85 1008.6
20260507095532 20 229 3.2 9.7 0.15 0.18 0.18 85 1008.6
20260507095032 20 215 3.2 9.7 0.10 0.13 0.13 82 1008.2
20260507094543 20 224 3.2 8.0 0.10 0.13 0.13 83 1008.0
20260507094033 20 224 3.2 8.0 0.10 0.13 0.13 84 1007.7
20260507093532 20 215 3.2 8.0 0.13 0.13 0.13 84 1007.7
20260507093042 20 223 1.6 9.7 0.13 0.13 0.13 83 1007.6
20260507092535 20 224 4.8 9.7 0.13 0.13 0.13 83 1007.6
20260507092033 20 241 4.8 12.9 0.13 0.13 0.13 83 1007.6
20260507091541 20 212 4.8 19.3 0.13 0.13 0.13 83 1007.8
20260507091032 20 245 9.7 20.9 0.13 0.13 0.13 83 1007.9
20260507090532 20 240 14.5 24.1 0.10 0.10 0.10 82 1007.6
20260507090049 20 225 12.9 24.1 0.03 0.03 0.03 80 1008.0
20260507085533 20 232 11.3 17.7 0.03 0.03 0.03 80 1008.0
20260507085034 20 246 9.7 17.7 0.03 0.03 0.03 80 1007.9
20260507084550 20 226 6.4 24.1 0.03 0.03 0.03 80 1007.9
20260507084033 20 248 11.3 24.1 0.03 0.03 0.03 79 1008.0
20260507083533 20 226 6.4 17.7 0.00 0.00 0.00 78 1008.0
20260507083103 21 241 8.0 17.7 0.00 0.00 0.00 79 1008.2
20260507082533 20 261 9.7 17.7 0.00 0.00 0.00 79 1008.1
20260507082032 20 209 6.4 16.1 0.00 0.00 0.00 79 1008.2
20260507081553 20 222 6.4 16.1 0.00 0.00 0.00 78 1008.2
20260507081033 21 227 6.4 16.1 0.00 0.00 0.00 78 1008.3
20260507080532 21 267 4.8 12.9 0.00 0.00 0.00 78 1008.5
20260507080050 21 196 3.2 17.7 0.00 0.00 0.00 79 1008.6
20260507075535 20 205 4.8 17.7 0.00 0.00 0.00 79 1008.7
20260507075033 20 206 4.8 16.1 0.00 0.00 0.00 79 1008.6
20260507074542 20 215 8.0 16.1 0.00 0.00 0.00 80 1008.9
20260507074032 20 238 8.0 14.5 0.00 0.00 0.00 79 1008.9
20260507073532 20 223 4.8 9.7 0.00 0.00 0.00 79 1008.7
20260507073052 21 243 3.2 14.5 0.00 0.00 0.00 78 1008.8
20260507072536 21 235 6.4 14.5 0.00 0.00 0.00 79 1008.7
20260507072031 20 258 8.0 16.1 0.00 0.00 0.00 80 1008.7
20260507071541 20 232 6.4 16.1 0.00 0.00 0.00 79 1008.7
20260507071032 20 224 9.7 16.1 0.00 0.00 0.00 79 1008.7
20260507070531 20 233 8.0 16.1 0.00 0.00 0.00 78 1008.6
20260507070046 20 210 6.4 16.1 0.00 0.00 0.00 78 1008.6
20260507065533 21 226 6.4 17.7 0.00 0.00 0.00 78 1008.6
20260507065033 20 275 8.0 17.7 0.00 0.00 0.00 78 1008.4
20260507064543 21 194 6.4 16.1 0.00 0.00 0.00 77 1008.2
20260507064031 21 264 8.0 16.1 0.00 0.00 0.00 77 1008.1
20260507063534 21 244 4.8 11.3 0.00 0.00 0.00 77 1008.1
20260507063049 21 232 1.6 11.3 0.00 0.00 0.00 78 1008.0
20260507062532 21 215 3.2 11.3 0.00 0.00 0.00 77 1007.9
20260507062033 21 187 3.2 12.9 0.00 0.00 0.00 77 1008.2
20260507061543 21 218 3.2 12.9 0.00 0.00 0.00 77 1008.6
20260507061033 21 209 4.8 12.9 0.00 0.00 0.00 77 1008.9
20260507060532 21 236 6.4 12.9 0.00 0.00 0.00 77 1009.3
20260507060043 21 223 4.8 11.3 0.00 0.00 0.00 77 1009.5
20260507055533 21 226 4.8 11.3 0.00 0.00 0.00 77 1009.6
20260507055033 21 255 3.2 11.3 0.00 0.00 0.00 76 1009.6
20260507054543 21 211 4.8 9.7 0.00 0.00 0.00 75 1009.7
20260507054036 21 227 4.8 11.3 0.00 0.00 0.00 75 1009.7
20260507053532 21 230 4.8 12.9 0.00 0.00 0.00 75 1009.8
20260507053040 21 254 6.4 12.9 0.00 0.00 0.00 74 1009.8
20260507052533 21 240 4.8 9.7 0.00 0.00 0.00 72 1009.9
20260507052031 22 237 4.8 11.3 0.00 0.00 0.00 72 1010.0
20260507051544 22 221 6.4 11.3 0.00 0.00 0.00 72 1009.9
20260507051031 21 220 6.4 14.5 0.00 0.00 0.00 72 1009.9
20260507050535 22 244 6.4 14.5 0.00 0.00 0.00 71 1009.9
20260507050042 22 232 6.4 14.5 0.00 0.00 0.00 70 1009.8
20260507045534 22 232 8.0 14.5 0.00 0.00 0.00 69 1009.6
20260507045034 22 236 4.8 9.7 0.00 0.00 0.00 68 1009.5
20260507044542 22 206 3.2 9.7 0.00 0.00 0.00 67 1009.5
20260507044032 22 197 4.8 8.0 0.00 0.00 0.00 67 1009.5
20260507043531 22 221 3.2 9.7 0.00 0.00 0.00 67 1009.4
20260507043041 22 215 3.2 16.1 0.00 0.00 0.00 66 1009.6
20260507042533 22 213 6.4 16.1 0.00 0.00 0.00 67 1009.7
20260507042034 22 257 4.8 14.5 0.00 0.00 0.00 67 1009.7
20260507041548 22 226 6.4 14.5 0.00 0.00 0.00 67 1009.7
20260507041033 22 224 6.4 12.9 0.00 0.00 0.00 67 1009.6
20260507040533 22 178 4.8 12.9 0.00 0.00 0.00 67 1009.6
20260507040040 22 200 3.2 9.7 0.00 0.00 0.00 67 1009.5
20260507035532 22 231 4.8 8.0 0.00 0.00 0.00 68 1009.6
20260507035036 22 225 3.2 8.0 0.00 0.00 0.00 68 1009.5
20260507034546 22 243 3.2 9.7 0.00 0.00 0.00 68 1009.3
20260507034034 22 227 4.8 9.7 0.00 0.00 0.00 67 1009.0
20260507033532 22 217 3.2 8.0 0.00 0.00 0.00 67 1009.0
20260507033042 22 217 1.6 8.0 0.00 0.00 0.00 67 1009.1
20260507032533 22 228 1.6 9.7 0.00 0.00 0.00 67 1009.2
20260507032032 22 228 4.8 9.7 0.00 0.00 0.00 67 1009.1
20260507031541 22 227 1.6 8.0 0.00 0.00 0.00 65 1009.1
20260507031037 23 0 3.2 8.0 0.00 0.00 0.00 64 1009.1
20260507030531 23 238 4.8 8.0 0.00 0.00 0.00 65 1009.5
20260507030041 22 240 3.2 9.7 0.00 0.00 0.00 65 1009.6
20260507025533 23 220 3.2 9.7 0.00 0.00 0.00 65 1009.8
20260507025035 23 223 1.6 11.3 0.00 0.00 0.00 63 1009.8
20260507024554 23 194 3.2 11.3 0.00 0.00 0.00 64 1009.8
20260507024031 23 296 4.8 11.3 0.00 0.00 0.00 64 1009.8
20260507023541 23 226 3.2 11.3 0.00 0.00 0.00 65 1010.0
20260507023044 22 223 3.2 8.0 0.00 0.00 0.00 65 1010.0
20260507022532 22 221 3.2 6.4 0.00 0.00 0.00 65 1009.9
20260507022032 23 202 1.6 8.0 0.00 0.00 0.00 64 1009.8
20260507021545 23 213 1.6 11.3 0.00 0.00 0.00 64 1009.7
20260507021033 22 0 3.2 11.3 0.00 0.00 0.00 65 1009.8
20260507020533 22 150 0.0 4.8 0.00 0.00 0.00 65 1009.9
20260507020059 23 168 0.0 6.4 0.00 0.00 0.00 63 1009.7
20260507015531 23 213 1.6 9.7 0.00 0.00 0.00 62 1009.8
20260507015033 23 184 3.2 9.7 0.00 0.00 0.00 63 1010.0
20260507014557 23 216 4.8 9.7 0.00 0.00 0.00 63 1010.1
20260507014032 23 212 3.2 8.0 0.00 0.00 0.00 63 1010.0
20260507013532 23 225 3.2 8.0 0.00 0.00 0.00 61 1009.9
20260507013046 23 236 3.2 9.7 0.00 0.00 0.00 61 1009.8
20260507012535 23 225 1.6 9.7 0.00 0.00 0.00 62 1009.6
20260507012032 23 257 3.2 9.7 0.00 0.00 0.00 63 1009.9
20260507011540 23 232 4.8 8.0 0.00 0.00 0.00 63 1009.8
20260507011032 23 232 3.2 8.0 0.00 0.00 0.00 62 1009.8
20260507010533 23 254 3.2 8.0 0.00 0.00 0.00 61 1009.9
20260507010044 23 198 3.2 11.3 0.00 0.00 0.00 61 1009.9
20260507005534 23 234 4.8 11.3 0.00 0.00 0.00 62 1009.8
20260507005033 23 219 4.8 9.7 0.00 0.00 0.00 61 1009.9
20260507004546 23 255 6.4 11.3 0.00 0.00 0.00 60 1009.9
20260507004033 24 241 6.4 11.3 0.00 0.00 0.00 59 1009.9
20260507003533 24 267 4.8 9.7 0.00 0.00 0.00 59 1009.8
20260507003047 24 233 4.8 9.7 0.00 0.00 0.00 60 1009.7
20260507002533 24 210 4.8 9.7 0.00 0.00 0.00 59 1009.6
20260507002031 24 225 3.2 8.0 0.00 0.00 0.00 59 1009.5
20260507001545 24 227 3.2 8.0 0.00 0.00 0.00 58 1009.5
20260507001033 25 243 4.8 8.0 0.00 0.00 0.00 58 1009.5
20260507000533 25 256 4.8 8.0 0.00 0.00 0.00 58 1009.3
20260507000042 24 220 4.8 11.3 0.00 0.00 0.00 58 1009.2
20260506235534 24 225 4.8 11.3 0.00 0.00 0.00 59 1009.2
20260506235035 24 236 6.4 12.9 0.00 0.00 0.00 58 1009.3
20260506234545 25 221 6.4 12.9 0.00 0.00 0.00 57 1009.2
20260506234030 25 251 4.8 12.9 0.00 0.00 0.00 56 1009.2
20260506233533 25 235 6.4 16.1 0.00 0.00 0.00 56 1009.0
20260506233045 25 217 6.4 16.1 0.00 0.00 0.00 56 1009.0
20260506232532 25 243 6.4 16.1 0.00 0.00 0.00 55 1009.0
20260506232031 25 236 8.0 16.1 0.00 0.00 0.00 54 1009.0
20260506231551 25 232 8.0 16.1 0.00 0.00 0.00 55 1009.0
20260506231033 25 221 8.0 16.1 0.00 0.00 0.00 55 1008.9
20260506230532 25 247 6.4 16.1 0.00 0.00 0.00 55 1008.9
20260506230053 25 243 8.0 16.1 0.00 0.00 0.00 55 1008.8
20260506225535 25 229 6.4 14.5 0.00 0.00 0.00 55 1008.7
20260506225033 25 229 8.0 12.9 0.00 0.00 0.00 54 1008.6
20260506224549 26 220 8.0 25.7 0.00 0.00 0.00 53 1008.7
20260506224034 25 249 8.0 24.1 0.00 0.00 0.00 54 1008.8
20260506223534 25 238 9.7 22.5 0.00 0.00 0.00 53 1008.9
20260506223052 26 163 8.0 22.5 0.00 0.00 0.00 53 1008.9
20260506222532 26 222 8.0 20.9 0.00 0.00 0.00 53 1008.9
20260506222032 26 167 9.7 24.1 0.00 0.00 0.00 53 1008.9
20260506221546 25 233 6.4 24.1 0.00 0.00 0.00 54 1008.9
20260506221036 25 244 8.0 22.5 0.00 0.00 0.00 54 1008.8
20260506220537 25 242 12.9 22.5 0.00 0.00 0.00 54 1008.8
20260506220045 25 213 11.3 20.9 0.00 0.00 0.00 54 1008.7
20260506215536 25 235 9.7 22.5 0.00 0.00 0.00 54 1008.6
20260506215033 25 237 9.7 22.5 0.00 0.00 0.00 53 1008.4
20260506214544 25 178 9.7 20.9 0.00 0.00 0.00 54 1008.3
20260506214033 25 261 11.3 20.9 0.00 0.00 0.00 54 1008.6
20260506213534 26 242 8.0 25.7 0.00 0.00 0.00 54 1008.7
20260506213102 26 195 12.9 30.6 0.00 0.00 0.00 53 1008.5
20260506212533 26 225 11.3 30.6 0.00 0.00 0.00 53 1008.6
20260506212035 26 234 11.3 30.6 0.00 0.00 0.00 53 1008.7
20260506211554 26 180 8.0 30.6 0.00 0.00 0.00 53 1008.3
20260506211032 25 220 8.0 25.7 0.00 0.00 0.00 54 1008.1
20260506210533 25 225 9.7 25.7 0.00 0.00 0.00 54 1008.2
20260506210041 25 203 8.0 19.3 0.00 0.00 0.00 54 1008.3
20260506205532 25 242 6.4 24.1 0.00 0.00 0.00 54 1008.6
20260506205033 25 204 8.0 24.1 0.00 0.00 0.00 54 1008.6
20260506204550 25 180 11.3 24.1 0.00 0.00 0.00 54 1008.7
20260506204032 26 237 8.0 29.0 0.00 0.00 0.00 53 1008.7
20260506203532 26 238 12.9 35.4 0.00 0.00 0.00 52 1008.8
20260506203047 25 224 14.5 35.4 0.00 0.00 0.00 52 1009.0
20260506202536 25 261 19.3 35.4 0.00 0.00 0.00 51 1009.2
20260506202035 25 246 12.9 33.8 0.00 0.00 0.00 53 1009.2
20260506201554 25 225 17.7 33.8 0.00 0.00 0.00 53 1009.4
20260506201034 26 257 14.5 27.4 0.00 0.00 0.00 53 1009.4
20260506200532 25 183 16.1 33.8 0.00 0.00 0.00 56 1009.6
20260506200043 25 186 16.1 33.8 0.00 0.00 0.00 57 1009.7
20260506195533 26 218 9.7 22.5 0.00 0.00 0.00 57 1009.7
20260506195033 26 196 8.0 25.7 0.00 0.00 0.00 58 1009.9
20260506194555 26 233 6.4 25.7 0.00 0.00 0.00 58 1010.0
20260506194032 25 202 11.3 27.4 0.00 0.00 0.00 58 1010.2
20260506193531 25 126 11.3 27.4 0.00 0.00 0.00 58 1010.3
20260506193041 25 234 9.7 24.1 0.00 0.00 0.00 58 1010.3
20260506192533 25 238 12.9 24.1 0.00 0.00 0.00 57 1010.4
20260506192033 26 229 8.0 22.5 0.00 0.00 0.00 57 1010.5
20260506191546 26 229 12.9 22.5 0.00 0.00 0.00 57 1010.5
20260506191034 25 233 8.0 19.3 0.00 0.00 0.00 58 1010.5
20260506190533 25 238 9.7 24.1 0.00 0.00 0.00 59 1010.6
20260506190044 25 243 12.9 24.1 0.00 0.00 0.00 59 1010.6
20260506185532 25 215 14.5 33.8 0.00 0.00 0.00 59 1010.5
20260506185036 25 235 9.7 33.8 0.00 0.00 0.00 59 1010.6
20260506184546 24 190 16.1 33.8 0.00 0.00 0.00 60 1010.7
20260506184034 25 288 6.4 30.6 0.00 0.00 0.00 59 1010.8
20260506183531 25 211 9.7 30.6 0.00 0.00 0.00 59 1010.8
20260506183056 25 187 8.0 24.1 0.00 0.00 0.00 58 1010.6
20260506182532 25 328 9.7 30.6 0.00 0.00 0.00 59 1010.8
20260506182032 25 227 17.7 30.6 0.00 0.00 0.00 59 1010.8
20260506181540 24 255 14.5 27.4 0.00 0.00 0.00 59 1010.9
20260506181033 24 240 11.3 29.0 0.00 0.00 0.00 59 1010.9
20260506180535 24 231 12.9 29.0 0.00 0.00 0.00 59 1011.1
20260506180050 24 149 9.7 27.4 0.00 0.00 0.00 59 1011.2
20260506175533 24 241 11.3 33.8 0.00 0.00 0.00 60 1011.3
20260506175032 24 214 14.5 33.8 0.00 0.00 0.00 59 1011.3
20260506174546 24 259 12.9 25.7 0.00 0.00 0.00 59 1011.5
20260506174032 25 236 8.0 25.7 0.00 0.00 0.00 58 1011.8
20260506173532 24 239 6.4 25.7 0.00 0.00 0.00 59 1011.8
20260506173050 24 205 9.7 24.1 0.00 0.00 0.00 60 1011.8
20260506172532 23 244 14.5 25.7 0.00 0.00 0.00 61 1011.8
20260506172031 23 138 9.7 29.0 0.00 0.00 0.00 61 1011.8
20260506171543 23 200 12.9 29.0 0.00 0.00 0.00 61 1012.0
20260506171033 23 240 12.9 27.4 0.00 0.00 0.00 62 1012.1
20260506170531 23 257 12.9 27.4 0.00 0.00 0.00 62 1012.1
20260506165532 23 191 9.7 25.7 0.00 0.00 0.00 62 1012.1
20260506165032 23 219 11.3 25.7 0.00 0.00 0.00 62 1012.0
20260506164541 23 211 9.7 22.5 0.00 0.00 0.00 62 1012.2
20260506164035 23 317 8.0 22.5 0.00 0.00 0.00 64 1012.2
20260506163533 22 180 6.4 19.3 0.00 0.00 0.00 64 1012.1
20260506163054 22 189 4.8 19.3 0.00 0.00 0.00 65 1012.2